Regional Weather Roundup
Issued by NWS Cleveland, OH

Home | Current Version | Previous Version | Graphics & Text | Print | Product List | Glossary On
Versions: 1 2 3 4 5 6 7 8 9 10 11 12 13 14 15 16 17 18 19 20 21 22 23 24 25 26 27 28 29 30 31 32 33 34 35 36 37 38 39 40 41 42 43 44 45 46 47 48 49 50
000
ASUS41 KCLE 251510
RWRCLE
OHIO REGIONAL WEATHER ROUNDUP
NATIONAL WEATHER SERVICE WILMINGTON, OH
1000 AM EST THU DEC 25 2014

NOTE: "FAIR" INDICATES FEW OR NO CLOUDS BELOW 12,000 FEET WITH NO
SIGNIFICANT WEATHER AND/OR OBSTRUCTIONS TO VISIBILITY.

OHZ001>008-015>018-024>027-034-035-043-044-251600-
   NORTHWEST OHIO

CITY           SKY/WX    TMP DP  RH WIND       PRES   REMARKS
DEFIANCE       CLOUDY    38  32  79 SW9G18    29.95R
FINDLAY        LGT RAIN  38  34  85 W13       29.95R
TOLEDO EXPRESS CLOUDY    37  32  82 W17G26    29.92R
TOLEDO METCALF CLOUDY    39  31  72 W14G25    29.93R
LIMA           CLOUDY    38  32  79 SW15G25   29.97R
$$

OHZ009>014-019>023-028>033-038-089-251600-
   NORTHEAST OHIO

CITY           SKY/WX    TMP DP  RH WIND       PRES   REMARKS
CLE-HOPKINS    CLOUDY    39  33  79 W22G31    29.95R
CLE-LAKEFRONT  CLOUDY    40  33  76 W18G29    29.92R
CUY CO. ARPT   CLOUDY    41  34  75 W14G25    29.90R
LORAIN-ELYRIA  PTSUNNY   38  33  82 W16G24    29.94R
ASHTABULA      CLOUDY    38  33  82 W16G26    29.88R
AKRON-CANTON   CLOUDY    38  32  79 W18G24    29.93R FOG
WOOSTER        LGT RAIN  36  33  89 W15       29.95R
MANSFIELD      CLOUDY    36  32  85 W12       29.95R
YOUNGSTOWN     LGT RAIN  37  32  82 W18G25    29.89R
$$

OHZ042-051>053-060>062-070>072-077>081-251600-
  SOUTHWEST OHIO

CITY           SKY/WX    TMP DP  RH WIND       PRES   REMARKS
CINC-COVINGTON DRIZZLE   36  31  82 SW6       30.08R
CINC-LUNKEN    LGT RAIN  37  35  92 W14       30.11R
HAMILTON       CLOUDY    39  33  79 W6        30.09R
DAYTON         CLOUDY    38  29  70 W14       30.04R
WRIGHT-PAT AFB CLOUDY    37  32  81 W12       30.05R
DAYTON GENERAL CLOUDY    36  32  85 SW7       30.05R
WILMINGTON     CLOUDY    36  29  75 W17G24    30.05R
$$

OHZ036-037-039>041-045>050-054>059-063>069-073>076-082>088-251600-
  CENTRAL AND SOUTHEAST OHIO

CITY           SKY/WX    TMP DP  RH WIND       PRES   REMARKS
COLUMBUS       LGT RAIN  36  32  85 W12       30.03R
OSU AIRPORT    CLOUDY    38  33  82 W13G21    30.02R
BOLTON FIELD   CLOUDY    37  32  81 SW12G18   30.03R
RICKENBACK AFB CLOUDY    38  32  81 W16       30.03R
NEWARK         LGT RAIN  38  33  82 W12       30.01R
MARION         CLOUDY    37  32  82 W15G23    29.99R
LANCASTER      CLOUDY    39  33  79 W14       30.04R
ZANESVILLE     CLOUDY    37  31  78 W12       30.02R
NEW PHILLY     CLOUDY    39  32  76 W14G22    29.99R
$$



USA.gov is the U.S. government's official web portal to all federal, state and local government web resources and services.